AirNav   Air Wisconsin pilot careers
 
 715 users online  

CA84 Torrey Pines Gliderport
San Diego, California, USA

GOING TO SAN DIEGO?


FAA INFORMATION EFFECTIVE 24 MAY 2018

Location

FAA Identifier: CA84
Lat/Long: 32-53-23.0000N / 117-14-49.0000W
32-53.383333N / 117-14.816667W
32.8897222 / -117.2469444
(estimated)
Elevation: 372 ft. / 113 m (estimated)
Variation: 13E (1985)
From city: 11 miles NW of SAN DIEGO, CA
Time zone: UTC -7 (UTC -8 during Standard Time)
Zip code: 92037

Gliderport Operations

Gliderport use: Private use. Permission required prior to landing
Activation date: 11/1961
Control tower: no
ARTCC: LOS ANGELES CENTER
FSS: SAN DIEGO FLIGHT SERVICE STATION
Attendance: UNATNDD
Wind indicator: no
Segmented circle: no

Gliderport Communications

WX ASOS at MYF (7 nm SE): PHONE 858-576-4337
WX ASOS at SAN (10 nm S): PHONE 619-296-8934
WX AWOS-3P at SEE (14 nm E): 125.45 (619-449-1228)
WX ASOS at CRQ (14 nm N): PHONE 760-930-0864
WX ASOS at RNM (19 nm NE): 132.025 (760-789-0736)

Nearby radio navigation aids

VOR radial/distance  VOR name  Freq  Var
MZBr335/6.5MISSION BAY VORTAC117.8015E
PGYr307/21.5POGGI VORTAC109.8014E
OCNr143/22.7OCEANSIDE VORTAC115.3015E
TIJr311/25.7TIJUANA VOR/DME116.5014E
JLIr231/36.5JULIAN VORTAC114.0015E

Gliderport Services

Airframe service: NONE
Powerplant service: NONE

Runway Information

Runway 9/27

Dimensions: 1500 x 30 ft. / 457 x 9 m
Surface: asphalt
RUNWAY 9  RUNWAY 27
Traffic pattern: leftleft
Obstructions: nonetrees, 100 ft. from runway

Gliderport Ownership and Management from official FAA records

Ownership: Publicly-owned
Owner: CITY OF SAN DIEGO
Manager: JIM FROST
4740 HARBINSON AVE
LA MESA, CA 91941
Phone 619-461-9614
WORK PHONE 619-535-9505 EXT 1585

Additional Remarks

GLIDER PORT IS LEASED FM CITY TO THE ASSOCD GLIDER CLUB OF SOUTHERN CALIF FOR STUDENT TRAINING & RIDGE SOARING.
ALL ACFT ARE TRAILERED GLIDERS.
ROLLING RWY .6 PERCENT GRADIENT.
EXTENSIVE HANG GLIDER OPERATIONS ON WEEKENDS AND WEEKDAYS.

Instrument Procedures

There are no published instrument procedures at CA84.

Some nearby airports with instrument procedures:

KNKX - Miramar MCAS (Joe Foss Field) Airport (5 nm E)
KMYF - Montgomery-Gibbs Executive Airport (7 nm SE)
KSAN - San Diego International Airport (10 nm S)
KNZY - North Island Naval Air Station (Halsey Field) (12 nm S)
KSEE - Gillespie Field Airport (14 nm E)
KCRQ - Mc Clellan-Palomar Airport (14 nm N)
KRNM - Ramona Airport (19 nm NE)
 
Loc | Ops | Rwys | IFR | FBO | Links
Com | Nav | Svcs | Stats | Notes

AirNav Hotels Sweepstakes
 
Area around CA84 (Torrey Pines Gliderport)
 
Road maps at: MapQuest Bing Google
 
Aerial photo
WARNING: Photo may not be current or correct
Aerial photo of CA84 (Torrey Pines Gliderport)
Photo by Doug Fronius
Photo taken 13-Mar-2004
from a 1942 Schweizer TG-2 sailplane.

Do you have a better or more recent aerial photo of Torrey Pines Gliderport that you would like to share? If so, please send us your photo.

 
Sectional chart

 
Airport distance calculator
Flying to Torrey Pines Gliderport? Find the distance to fly.

From to CA84

Sunrise and sunset
Times for 19-Jun-2018
 Local
(UTC-7)
 Zulu
(UTC)
Morning civil twilight05:1312:13
Sunrise05:4212:42
Sunset19:5902:59
Evening civil twilight20:2803:28

Current date and time
Zulu (UTC)  20-Jun-2018 04:02:09
Local (UTC-7)  19-Jun-2018 21:02:09
 
METAR
KNKX 
6nm E 
200255Z 29006KT 10SM OVC014 19/13 A2995 RMK AO2 SLP138 T01890133 53005
KMYF 
7nm SE 
200353Z 00000KT 10SM OVC014 18/13 A2996 RMK AO2 SLP141 T01780133
KSAN 
10nm S 
200351Z VRB03KT 10SM OVC017 18/14 A2997 RMK AO2 SLP148 T01830139 $
KNZY 
11nm S 
200352Z 28003KT 10SM OVC015 18/13 A2995 RMK SLP141 T01780133
KCRQ 
15nm N 
200353Z VRB03KT 10SM OVC013 17/14 A2995 RMK AO2 SLP140 T01720144
KSEE 
15nm E 
200347Z 29004KT 7SM BKJ019 18/14 A2996
KRNM 
19nm NE 
200353Z AUTO 29004KT 10SM CLR 16/12 A2996 RMK AO2 SLP138 T01560122 $
TAF
KNKX 
6nm E 
1921/2021 28008KT 9999 FEW020 QNH2990INS BECMG 2007/2009 VRB05KT 9999 BKN015 QNH2988INS BECMG 2016/2018 27008KT 9999 FEW020 QNH2987INS T25/1921Z T17/2013Z
KSAN 
10nm S 
200159Z 2002/2106 25008KT P6SM OVC018 FM200300 24005KT P6SM BKN017 FM201700 20004KT P6SM SCT020 FM201900 26010KT P6SM FEW020 FM210300 28004KT P6SM BKN015
KNZY 
11nm S 
1923/2023 26011KT 9999 SCT015 QNH2988INS TEMPO 1923/2002 BKN020 FM200200 29007KT 9999 BKN015 QNH2990INS BECMG 2010/2012 VRB06KT 8000 BR OVC010 QNH2996INS FM201700 26007KT 9999 SCT025 SCT200 QNH3001INS T16/2012Z T22/2023Z FS30092
KCRQ 
15nm N 
192041Z 1921/2018 26009KT P6SM FEW022 TEMPO 1921/1924 BKN018 FM200300 VRB03KT P6SM BKN016 FM200600 VRB03KT P6SM OVC012 FM201700 VRB04KT P6SM SCT015
NOTAMs
Click for the latest NOTAMs
NOTAMs are issued by the DoD/FAA and will open in a separate window not controlled by AirNav.

 

 
 

Would you like to see your business listed on this page?

 If your business provides an interesting product or service to pilots, flight crews, aircraft, or users of the Torrey Pines Gliderport, you should consider listing it here.  To start the listing process, click on the button below
 
Add a business
 

Other Pages about Torrey Pines Gliderport

www.agcsc.org/torrey_pines_info.html
 
Update a link
 
Copyright © AirNav, LLC. All rights reserved. Privacy Policy  Contact